SAS725 EKRN-EKCH

Flight info

Callsign SAS725
Flight time 0h 35m
Altitude 16000
Route ROE M743 TIDVU
Aircraft A20N/M-SDE2E3FGHIRWXY/LB1

Departure

Time 2026-05-07 21:08
Airport Bornholm Airport (EKRN)

Arrival

Time 2026-05-07 21:43
Airport Copenhagen Kastrup Airport (EKCH)
Time Latitude Longitude Altitude Speed Heading
2026-05-07 20:47 55.06892 14.74876 57 ft 0 kts 24°
2026-05-07 21:01 55.06872 14.74857 53 ft 4 kts 43°
2026-05-07 21:01 55.06859 14.74822 56 ft 4 kts 91°
2026-05-07 21:02 55.06861 14.74801 58 ft 1 kts 114°
2026-05-07 21:05 55.06856 14.74818 53 ft 6 kts 121°
2026-05-07 21:05 55.06812 14.74851 58 ft 8 kts 179°
2026-05-07 21:06 55.06773 14.74850 57 ft 3 kts 181°
2026-05-07 21:06 55.06734 14.74849 64 ft 13 kts 181°
2026-05-07 21:06 55.06634 14.74856 66 ft 13 kts 154°
2026-05-07 21:06 55.06577 14.74976 68 ft 9 kts 110°
2026-05-07 21:07 55.06562 14.75040 64 ft 0 kts 117°
2026-05-07 21:07 55.06556 14.75061 62 ft 17 kts 117°
2026-05-07 21:07 55.06393 14.75695 62 ft 96 kts 114°
2026-05-07 21:07 55.06018 14.77164 88 ft 163 kts 113°
2026-05-07 21:08 55.05529 14.78955 819 ft 162 kts 116°
2026-05-07 21:08 55.04907 14.80648 1515 ft 173 kts 133°
2026-05-07 21:08 55.03836 14.81678 2175 ft 183 kts 167°
2026-05-07 21:08 55.02544 14.81240 2545 ft 209 kts 212°
2026-05-07 21:09 55.01655 14.79101 2799 ft 239 kts 256°
2026-05-07 21:09 55.01786 14.76128 3374 ft 257 kts 297°
2026-05-07 21:09 55.02960 14.73851 4343 ft 254 kts 334°
2026-05-07 21:09 55.04638 14.73246 5409 ft 248 kts 10°
2026-05-07 21:10 55.06167 14.74492 6483 ft 245 kts 43°
2026-05-07 21:10 55.07404 14.76568 7464 ft 250 kts 38°
2026-05-07 21:10 55.09066 14.77595 8334 ft 265 kts
2026-05-07 21:10 55.10875 14.76745 9233 ft 281 kts 330°
2026-05-07 21:11 55.12196 14.74202 10187 ft 292 kts 296°
2026-05-07 21:11 55.12638 14.70663 10835 ft 312 kts 270°
2026-05-07 21:11 55.12268 14.62678 12250 ft 340 kts 270°
2026-05-07 21:12 55.12345 14.59939 12933 ft 342 kts 277°
2026-05-07 21:12 55.12787 14.55845 13990 ft 344 kts 285°
2026-05-07 21:12 55.13556 14.51859 14889 ft 348 kts 292°
2026-05-07 21:12 55.14543 14.47962 15645 ft 352 kts 296°
2026-05-07 21:13 55.15653 14.44118 16068 ft 355 kts 298°
2026-05-07 21:13 55.16814 14.40304 16172 ft 357 kts 298°
2026-05-07 21:13 55.17992 14.36470 16177 ft 358 kts 298°
2026-05-07 21:13 55.19168 14.32602 16175 ft 359 kts 298°
2026-05-07 21:14 55.20326 14.28722 16173 ft 359 kts 297°
2026-05-07 21:14 55.21313 14.24717 16171 ft 360 kts 288°
2026-05-07 21:14 55.21763 14.20420 16170 ft 360 kts 272°
2026-05-07 21:14 55.21538 14.16063 16172 ft 360 kts 260°
2026-05-07 21:15 55.21029 14.11767 16173 ft 360 kts 257°
2026-05-07 21:15 55.20455 14.07493 16150 ft 361 kts 257°
2026-05-07 21:15 55.19865 14.03221 15839 ft 360 kts 256°
2026-05-07 21:15 55.19273 13.98979 15276 ft 359 kts 256°
2026-05-07 21:16 55.18688 13.94798 14723 ft 357 kts 256°
2026-05-07 21:16 55.18097 13.90587 14153 ft 355 kts 256°
2026-05-07 21:16 55.17508 13.86401 13562 ft 353 kts 256°
2026-05-07 21:16 55.16915 13.82199 12936 ft 351 kts 256°
2026-05-07 21:17 55.16339 13.78122 12329 ft 349 kts 256°
2026-05-07 21:17 55.15756 13.74016 11749 ft 347 kts 256°
2026-05-07 21:17 55.15178 13.69947 11166 ft 344 kts 256°
2026-05-07 21:17 55.14600 13.65894 10595 ft 342 kts 256°
2026-05-07 21:18 55.14024 13.61867 10039 ft 340 kts 256°
2026-05-07 21:18 55.13451 13.57866 9421 ft 338 kts 256°
2026-05-07 21:18 55.12881 13.53903 8804 ft 335 kts 256°
2026-05-07 21:18 55.12315 13.49972 8211 ft 332 kts 256°
2026-05-07 21:19 55.11753 13.46078 7616 ft 329 kts 256°
2026-05-07 21:19 55.11195 13.42213 7036 ft 327 kts 257°
2026-05-07 21:19 55.10755 13.38344 6470 ft 324 kts 259°
2026-05-07 21:19 55.10339 13.34492 5932 ft 319 kts 260°
2026-05-07 21:20 55.09945 13.30753 5694 ft 306 kts 260°
2026-05-07 21:20 55.09572 13.27173 5479 ft 293 kts 260°
2026-05-07 21:20 55.09218 13.23739 5264 ft 281 kts 260°
2026-05-07 21:20 55.08878 13.20439 5052 ft 271 kts 260°
2026-05-07 21:21 55.08556 13.17300 4829 ft 262 kts 260°
2026-05-07 21:21 55.08239 13.14224 4616 ft 253 kts 260°
2026-05-07 21:21 55.07932 13.11248 4397 ft 246 kts 261°
2026-05-07 21:21 55.07633 13.08350 4193 ft 239 kts 261°
2026-05-07 21:22 55.07339 13.05515 3977 ft 236 kts 261°
2026-05-07 21:22 55.07048 13.02702 3771 ft 235 kts 262°
2026-05-07 21:22 55.06757 12.99894 3562 ft 235 kts 262°
2026-05-07 21:22 55.06465 12.97089 3355 ft 234 kts 262°
2026-05-07 21:23 55.06178 12.94331 3196 ft 233 kts 262°
2026-05-07 21:23 55.05885 12.91529 3163 ft 232 kts 262°
2026-05-07 21:23 55.05598 12.88789 3166 ft 233 kts 262°
2026-05-07 21:23 55.05307 12.86009 3166 ft 233 kts 262°
2026-05-07 21:24 55.05015 12.83235 3168 ft 233 kts 262°
2026-05-07 21:24 55.04721 12.80449 3162 ft 233 kts 262°
2026-05-07 21:24 55.04427 12.77669 3163 ft 233 kts 262°
2026-05-07 21:24 55.04133 12.74891 3160 ft 233 kts 262°
2026-05-07 21:25 55.03838 12.72113 3163 ft 233 kts 262°
2026-05-07 21:25 55.03542 12.69335 3162 ft 233 kts 262°
2026-05-07 21:25 55.03245 12.66557 3162 ft 233 kts 262°
2026-05-07 21:25 55.02948 12.63783 3163 ft 233 kts 261°
2026-05-07 21:26 55.02651 12.61010 3169 ft 233 kts 261°
2026-05-07 21:26 55.02354 12.58243 3160 ft 233 kts 261°
2026-05-07 21:26 55.02056 12.55470 3163 ft 233 kts 261°
2026-05-07 21:26 55.01756 12.52698 3154 ft 228 kts 261°
2026-05-07 21:27 55.01472 12.50080 3176 ft 210 kts 261°
2026-05-07 21:27 55.01212 12.47704 3168 ft 193 kts 261°
2026-05-07 21:27 55.00954 12.45433 3155 ft 190 kts 259°
2026-05-07 21:27 55.00709 12.43187 3158 ft 188 kts 269°
2026-05-07 21:28 55.00957 12.41003 3154 ft 183 kts 301°
2026-05-07 21:28 55.01851 12.39514 3155 ft 178 kts 338°
2026-05-07 21:28 55.03054 12.39292 3172 ft 176 kts
2026-05-07 21:28 55.04212 12.39705 3158 ft 166 kts 14°
2026-05-07 21:29 55.05321 12.40219 3159 ft 161 kts 15°
2026-05-07 21:29 55.06405 12.40702 3158 ft 161 kts
2026-05-07 21:29 55.07507 12.40855 3159 ft 161 kts
2026-05-07 21:29 55.08628 12.40930 3174 ft 161 kts
2026-05-07 21:30 55.09747 12.40970 3169 ft 161 kts
2026-05-07 21:30 55.10874 12.40993 3168 ft 161 kts
2026-05-07 21:30 55.11999 12.41006 3161 ft 161 kts
2026-05-07 21:30 55.13122 12.41014 3155 ft 161 kts
2026-05-07 21:31 55.14246 12.41020 3162 ft 161 kts
2026-05-07 21:31 55.15371 12.41025 3163 ft 162 kts 360°
2026-05-07 21:31 55.16497 12.41029 3158 ft 162 kts
2026-05-07 21:31 55.17619 12.41030 3159 ft 162 kts 360°
2026-05-07 21:32 55.18744 12.41070 3161 ft 161 kts
2026-05-07 21:32 55.19858 12.41122 3159 ft 160 kts
2026-05-07 21:32 55.20969 12.41174 3174 ft 160 kts
2026-05-07 21:32 55.22079 12.41226 3165 ft 159 kts
2026-05-07 21:33 55.23186 12.41279 3170 ft 159 kts
2026-05-07 21:33 55.24296 12.41331 3165 ft 160 kts
2026-05-07 21:33 55.25407 12.41384 3164 ft 160 kts
2026-05-07 21:33 55.26515 12.41436 3175 ft 160 kts
2026-05-07 21:34 55.27628 12.41489 3166 ft 160 kts
2026-05-07 21:34 55.28735 12.41542 3166 ft 159 kts
2026-05-07 21:34 55.29830 12.41594 3175 ft 159 kts
2026-05-07 21:34 55.30940 12.41647 3171 ft 159 kts
2026-05-07 21:35 55.32049 12.41700 3171 ft 159 kts
2026-05-07 21:35 55.33159 12.41754 3178 ft 159 kts
2026-05-07 21:35 55.34269 12.41807 3170 ft 160 kts
2026-05-07 21:35 55.35379 12.41860 3171 ft 159 kts
2026-05-07 21:36 55.36489 12.41913 3175 ft 160 kts
2026-05-07 21:36 55.37600 12.41967 3175 ft 160 kts
2026-05-07 21:36 55.38708 12.42020 3177 ft 160 kts
2026-05-07 21:36 55.39819 12.42074 3172 ft 160 kts
2026-05-07 21:37 55.40931 12.42128 3178 ft 160 kts
2026-05-07 21:37 55.42041 12.42181 3176 ft 160 kts
2026-05-07 21:37 55.43150 12.42235 3183 ft 160 kts
2026-05-07 21:37 55.44263 12.42289 3178 ft 160 kts
2026-05-07 21:38 55.45374 12.42343 3178 ft 160 kts
2026-05-07 21:38 55.46465 12.42400 3173 ft 150 kts
2026-05-07 21:38 55.47435 12.42751 3122 ft 140 kts 21°
2026-05-07 21:38 55.48271 12.43612 2937 ft 139 kts 35°
2026-05-07 21:39 55.49027 12.44687 2746 ft 140 kts 38°
2026-05-07 21:39 55.49760 12.45780 2538 ft 140 kts 39°
2026-05-07 21:39 55.50498 12.46913 2341 ft 139 kts 40°
2026-05-07 21:39 55.51220 12.48019 2154 ft 139 kts 40°
2026-05-07 21:40 55.51951 12.49141 1949 ft 139 kts 40°
2026-05-07 21:40 55.52680 12.50263 1767 ft 139 kts 40°
2026-05-07 21:40 55.53408 12.51385 1568 ft 139 kts 40°
2026-05-07 21:40 55.54135 12.52504 1385 ft 138 kts 40°
2026-05-07 21:41 55.54858 12.53620 1214 ft 138 kts 40°
2026-05-07 21:41 55.55579 12.54731 1030 ft 138 kts 40°
2026-05-07 21:41 55.56299 12.55843 831 ft 137 kts 40°
2026-05-07 21:41 55.57016 12.56948 642 ft 136 kts 40°
2026-05-07 21:42 55.57726 12.58046 444 ft 135 kts 40°
2026-05-07 21:42 55.58433 12.59138 266 ft 134 kts 40°
2026-05-07 21:42 55.59136 12.60223 90 ft 133 kts 40°
2026-05-07 21:42 55.59802 12.61250 20 ft 113 kts 41°
2026-05-07 21:43 55.60257 12.61958 22 ft 70 kts 41°
2026-05-07 21:43 55.60591 12.62328 22 ft 48 kts 14°
2026-05-07 21:43 55.60848 12.62490 20 ft 35 kts 41°
2026-05-07 21:43 55.61028 12.62774 21 ft 33 kts 39°
2026-05-07 21:44 55.61199 12.63037 20 ft 32 kts 41°
2026-05-07 21:44 55.61365 12.63289 20 ft 31 kts 40°
2026-05-07 21:44 55.61526 12.63531 20 ft 30 kts 41°
2026-05-07 21:44 55.61675 12.63773 21 ft 29 kts 42°
2026-05-07 21:45 55.61821 12.63999 21 ft 27 kts 41°
2026-05-07 21:45 55.61985 12.64169 20 ft 28 kts 25°
2026-05-07 21:45 55.62175 12.64333 19 ft 35 kts 23°
2026-05-07 21:45 55.62421 12.64465 20 ft 38 kts 15°
2026-05-07 21:46 55.62547 12.64357 20 ft 18 kts 301°
2026-05-07 21:46 55.62666 12.64315 20 ft 21 kts 11°
2026-05-07 21:46 55.62741 12.64367 20 ft 1 kts 327°
2026-05-07 21:46 55.62759 12.64322 20 ft 3 kts 294°
2026-05-07 21:47 55.62760 12.64317 20 ft 0 kts 296°